Location: Newark
(35.0033°N, 81.0878°W)
Time: 22:53:03
(UTC+00:00)

LightSail 2 - Visible Passes

Search period start: 17 September 2019 00:00
Search period end: 27 September 2019 00:00
Orbit: 699 x 732 km, 24.0° (Epoch: 17 September)

Date Brightness Start Highest point End Pass type
(mag) Time Alt. Az. Time Alt. Az. Time Alt. Az.
20 Sep 7.2 10:34:41 10° SSW 10:37:58 17° SSE 10:41:16 10° SE visible
21 Sep 7.2 09:38:58 12° S 09:40:57 15° SSE 09:43:41 10° SE visible
22 Sep 7.7 08:45:21 11° SE 08:45:21 11° SE 08:45:42 10° SE visible
22 Sep 6.9 10:25:02 10° SW 10:28:48 21° S 10:32:35 10° SE visible
23 Sep 6.9 09:30:45 18° S 09:31:46 19° S 09:35:17 10° SE visible
24 Sep 7.6 08:37:06 12° SE 08:37:06 12° SE 08:37:50 10° SE visible
24 Sep 6.7 10:16:07 12° SW 10:19:38 23° S 10:23:37 10° SE visible
25 Sep 6.7 09:22:27 22° S 09:22:34 22° S 09:26:27 10° SE visible
26 Sep 7.7 08:28:47 12° SE 08:28:47 12° SE 08:29:12 10° SE visible
26 Sep 6.6 10:07:49 15° SW 10:10:27 23° S 10:14:24 10° SE visible
